Location: *
(51.2167°N, 10.0667°E)
Time: 11:45:53
(UTC+00:00)

Cosmos 1943 Rocket - Pass Details

Date: 12 December 2019
Orbit: 812 x 844 km, 71.0° (Epoch: 24 January)

Event Time Altitude Azimuth Distance (km) Brightness Sun altitude
Rises 17:16:22 0° 331° (NNW) 3,409 5.6 -18.2°
Reaches altitude 10° 17:18:53 10° 335° (NNW) 2,468 4.8 -18.6°
Maximum altitude 17:24:29 59° 55° (NE) 966 2.2 -19.5°
Enters shadow 17:27:56 23° 127° (SE) 1,702 3.4 -20.0°
